Location: Observatoire
(46.1952°N, 5.3391°E)
Time: 06:45:52
(UTC+01:00)

A-11 Canister half - Pass Details

Date: 20 February 2026
Orbit: 1524 x 1683 km, 47.3° (Epoch: 13 March)

Event Time Altitude Azimuth Distance (km) Brightness Sun altitude
Rises 21:28:59 0° 289° (WNW) 4,681 12.6 -34.3°
Reaches altitude 10° 21:32:02 10° 287° (WNW) 3,693 11.8 -34.8°
Maximum altitude 21:41:14 69° 206° (SSW) 1,617 8.9 -36.2°
Enters shadow 21:41:15 69° 205° (SSW) 1,617 8.9 -36.2°
Drops below altitude 10° 21:50:31 10° 126° (SE) 3,731 - -37.7°
Sets 21:53:37 0° 124° (SE) 4,731 - -38.1°
